Location: Miss�
(46.9484°N, 0.1922°W)
Time: 20:23:48
(UTC+00:00)

USA 306 - Pass Details

Date: 02 March 2021
Orbit: 564 x 577 km, 54.0° (Epoch: 13 April)

Event Time Altitude Azimuth Distance (km) Brightness Sun altitude
Rises 18:16:19 0° 262° (W) 2,771 9.2 -5.6°
Reaches altitude 10° 18:18:40 10° 269° (W) 1,873 7.4 -6.0°
Maximum altitude 18:22:43 42° 342° (NNW) 814 3.8 -6.7°
Drops below altitude 10° 18:26:47 10° 54° (NE) 1,870 5.0 -7.4°
Enters shadow 18:27:38 - 58° (ENE) 2,189 5.3 -7.6°
